TimeCST,TemperatureF,Dew PointF,Humidity,Sea Level PressureIn,VisibilityMPH,Wind Direction,Wind SpeedMPH,Gust SpeedMPH,PrecipitationIn,Events,Conditions,WindDirDegrees,DateUTC
12:58 AM,55.9,46.0,69,30.15,10.0,North,3.5,-,N/A,,Clear,350,2012-11-24 06:58:00
1:58 AM,54.0,48.0,80,30.15,10.0,North,8.1,-,N/A,,Clear,350,2012-11-24 07:58:00
2:58 AM,52.0,43.0,71,30.16,10.0,Variable,5.8,-,N/A,,Clear,0,2012-11-24 08:58:00
3:58 AM,48.9,41.0,74,30.17,10.0,NNW,3.5,-,N/A,,Clear,340,2012-11-24 09:58:00
4:58 AM,46.9,37.9,71,30.19,10.0,Calm,Calm,-,N/A,,Clear,0,2012-11-24 10:58:00
5:58 AM,44.1,37.0,76,30.21,10.0,NNW,3.5,-,N/A,,Clear,330,2012-11-24 11:58:00
7:58 AM,46.9,37.0,68,30.24,10.0,NNW,6.9,-,N/A,,Clear,340,2012-11-24 13:58:00
8:58 AM,50.0,36.0,59,30.25,10.0,North,8.1,-,N/A,,Clear,360,2012-11-24 14:58:00
9:58 AM,54.0,35.1,49,30.24,10.0,Variable,3.5,-,N/A,,Clear,0,2012-11-24 15:58:00
10:58 AM,55.9,30.0,37,30.22,10.0,NNW,9.2,16.1,N/A,,Clear,340,2012-11-24 16:58:00
11:58 AM,57.9,28.9,33,30.18,10.0,Variable,4.6,-,N/A,,Clear,0,2012-11-24 17:58:00
12:58 PM,59.0,25.0,27,30.16,10.0,North,4.6,-,N/A,,Clear,350,2012-11-24 18:58:00
1:58 PM,60.1,26.1,27,30.15,10.0,North,3.5,-,N/A,,Clear,10,2012-11-24 19:58:00
2:58 PM,60.1,26.1,27,30.15,10.0,Variable,4.6,-,N/A,,Clear,0,2012-11-24 20:58:00
3:58 PM,57.0,27.0,32,30.16,10.0,North,3.5,-,N/A,,Clear,350,2012-11-24 21:58:00
4:58 PM,52.0,28.9,41,30.17,10.0,Calm,Calm,-,N/A,,Clear,0,2012-11-24 22:58:00
5:58 PM,48.9,28.9,46,30.18,10.0,NNW,3.5,-,N/A,,Clear,340,2012-11-24 23:58:00
6:58 PM,43.0,32.0,65,30.19,10.0,Calm,Calm,-,N/A,,Clear,0,2012-11-25 00:58:00
7:58 PM,39.9,34.0,79,30.19,-9999.0,Calm,Calm,-,N/A,,Clear,0,2012-11-25 01:58:00
8:58 PM,41.0,32.0,70,30.21,-9999.0,Calm,Calm,-,N/A,,Clear,0,2012-11-25 02:58:00
9:58 PM,39.9,32.0,73,30.20,-9999.0,Calm,Calm,-,N/A,,Clear,0,2012-11-25 03:58:00
10:58 PM,41.0,28.9,62,30.19,-9999.0,North,3.5,-,N/A,,Clear,350,2012-11-25 04:58:00
11:58 PM,39.9,28.0,63,30.18,-9999.0,NNW,4.6,-,N/A,,Clear,340,2012-11-25 05:58:00